Presure
182 178 205 236 144 182 165 100 189 198 180 178 181 193 194 188 197 191 197 190 205 231 245 221 169 221 213 195 164 164 160 176 165 168 164 175 158 158 160 176 174 167 159 161 154 148 171
182 162 182 115 131 203 209 82 215 194 179 179 196 200 189 188 192 184 209 215 229 208 209 233 235 209 170 167 161 166 169 159 154 165 159 160 169 161 156 175 161 160 163 174 162 180 169
184 143 170 170 100 188 215 212 132 202 207 95 200 192 187 179 195 213 235 175 219 162 233 271 211 165 183 151 164 172 168 161 156 171 152 151 172 159 169 176 154 156 162 158 154 175 169
186 173 132 172 171 168 175 177 208 204 204 122 201 191 187 202 226 213 169 153 167 182 173 178 178 159 164 161 162 170 160 162 175 160 154 169 160 162 156 160 163 165 168 159 168 159 169
176 185 170 174 90 153 153 146 153 129 198 196 198 173 172 155 165 163 131 171 130 167 163 189 152 166 164 160 164 156 177 157 150 158 165 157 155 153 155 161 160 162 165 157 164 159 159
166 171 187 168 172 164 166 164 169 187 188 203 199 196 106 94 196 149 172 167 166 162 149 186 169 168 161 159 160 148 160 161 150 159 157 162 160 155 162 158 162 160 144 163 160 153 160
146 179 169 165 186 163 148 168 163 181 175 124 193 172 213 212 173 133 105 162 167 158 163 161 175 166 166 166 155 158 157 157 159 152 156 164 154 168 153 166 148 151 160 158 167 163 151
170 185 178 170 153 181 173 156 170 168 163 186 139 169 143 175 161 131 168 163 151 158 174 167 161 168 162 164 154 155 153 157 157 154 161 145 154 155 151 165 157 150 155 161 151 151 143
179 183 155 186 159 179 176 163 175 165 158 191 163 177 173 171 162 131 149 159 158 170 171 154 152 159 168 160 155 157 160 148 153 157 153 156 157 158 151 151 154 157 171 177 164 171 164
198 160 186 161 178 179 171 169 160 147 163 165 163 157 168 162 166 166 156 157 143 93 153 163 141 167 156 152 154 156 162 157 150 154 158 146 146 160 155 175 179 151 174 163 169 162 158
149 186 177 204 181 154 155 162 165 164 155 163 163 146 160 155 143 124 110 145 171 144 144 149 163 165 164 164 159 153 154 158 156 162 147 152 154 175 171 150 169 166 159 163 170 148 149
159 134 178 175 172 185 175 151 166 165 154 160 160 164 150 150 153 167 160 160 163 167 155 163 145 160 162 155 148 158 163 161 153 158 159 158 154 163 171 168 158 162 162 168 158 157 157
193 170 159 189 187 185 186 179 159 173 168 151 151 161 156 140 148 167 150 142 154 165 157 159 152 168 143 165 152 159 147 150 168 164 168 161 134 151 151 158 159 157 166 155 154 167 143
168 117 164 172 165 183 191 133 146 165 166 161 164 160 142 165 155 130 164 158 147 137 142 123 152 154 159 149 166 144 132 159 125 164 141 153 155 151 148 150 137 163 154 157 163 163 147
176 130 191 180 146 138 184 195 182 155 157 154 161 157 163 151 160 163 159 137 125 155 157 157 156 123 173 154 143 141 159 155 154 147 159 155 147 148 158 171 153 159 133 157 167 146 148
144 172 172 167 172 155 162 181 197 170 150 161 171 159 154 156 157 154 160 155 143 150 155 156 119 155 150 150 153 151 148 152 161 155 155 161 153 155 158 143 156 160 153 155 163 166 180
169 174 167 171 144 172 157 140 190 163 178 147 155 161 156 164 154 151 159 151 151 154 147 151 151 142 149 148 151 149 140 156 147 131 155 153 164 158 157 161 163 151 162 139 146 161 172
203 203 151 176 170 163 179 163 173 198 164 207 164 154 162 161 166 147 154 152 148 155 152 156 148 148 148 158 155 154 150 151 156 115 161 154 147 148 154 155 137 136 166 161 163 175 170
183 186 183 195 180 161 168 156 143 159 214 208 166 169 153 162 170 163 159 151 157 158 153 152 154 154 153 152 152 144 153 156 152 147 130 157 157 132 169 130 161 158 165 143 169 178 158
256 259 248 212 220 172 171 107 176 149 203 174 181 197 177 143 163 171 165 158 147 158 157 158 159 159 145 160 160 160 161 159 161 161 160 163 160 171 164 153 168 160 154 168 167 165 171
378 244 249 255 255 217 202 222 196 193 186 192 176 204 163 153 168 166 172 168 165 163 173 162 154 162 158 143 165 166 161 167 155 149 151 155 166 160 160 163 167 171 165 158 182 168 172
481 446 345 314 257 256 234 205 198 174 191 166 204 164 173 190 142 158 157 172 154 147 172 171 143 165 167 167 160 142 168 147 168 158 166 169 162 159 174 166 153 155 179 166 178 161 162
486 467 445 358 319 309 265 207 206 190 191 184 203 197 166 174 176 191 161 152 146 174 158 159 149 172 176 170 164 166 159 174 150 165 162 167 174 153 162 174 165 170 162 163 179 180 186
404 468 283 429 358 315 283 235 221 199 194 197 186 194 177 191 169 192 163 167 169 172 178 182 162 157 165 149 149 156 156 160 161 167 164 169 179 185 157 178 175 147 180 146 181 186 164
321 312 325 432 399 330 255 288 224 205 203 190 199 188 199 207 160 190 181 148 176 180 161 169 175 166 166 170 168 156 150 155 173 154 173 167 187 151 174 180 169 162 188 181 161 163 191
315 303 372 426 399 361 302 287 227 221 203 196 192 196 201 202 181 162 163 178 180 175 193 183 170 185 180 165 182 168 165 171 182 167 159 164 160 167 183 196 161 183 185 173 153 180 159
311 308 347 429 405 387 320 279 273 222 218 197 201 196 191 198 191 186 202 172 193 193 197 197 190 162 170 178 178 172 176 179 171 165 173 165 177 183 179 190 185 193 191 181 162 198 199
304 342 350 385 409 382 336 287 275 223 219 208 196 193 191 191 194 185 175 186 190 194 196 188 199 186 181 167 181 180 175 175 159 165 179 197 193 181 151 191 184 164 177 189 189 196 194
376 369 352 334 410 390 360 305 284 255 228 220 204 203 196 187 158 197 189 201 200 187 204 204 178 177 196 185 184 188 173 160 162 182 175 183 194 196 186 177 194 192 148 184 190 200 178
Wind_Speed
23 24 19 29 36 32 34 25 46 50 46 45 46 51 45 38 40 40 35 33 36 31 22 21 26 20 22 16 20 16 19 10 15 15 16 13 18 17 20 20 22 22 13 17 8 13 23
25 31 20 40 30 33 44 21 44 49 42 45 51 45 39 41 39 32 36 31 25 26 24 18 23 23 21 20 21 17 13 18 21 17 19 19 16 19 20 20 23 17 23 26 23 25 21
23 39 25 30 38 24 29 33 32 38 41 20 42 38 36 34 37 34 31 23 23 26 21 25 25 24 16 28 18 14 15 19 21 14 21 16 15 24 24 18 17 18 29 25 20 29 28
14 28 35 26 26 27 26 29 32 32 30 27 31 34 35 33 32 24 24 29 26 17 17 19 19 24 22 21 20 16 20 21 9 20 24 18 24 28 24 28 35 33 33 32 35 33 35
20 20 30 27 32 32 39 35 30 29 34 33 31 30 31 26 27 27 21 24 21 22 23 21 28 23 21 22 19 23 12 25 25 25 22 26 27 25 29 35 35 38 37 33 37 34 39
35 28 22 31 26 31 31 30 29 31 35 33 29 27 28 27 22 22 25 25 25 25 28 20 20 20 24 24 24 26 25 26 28 27 28 28 33 31 36 34 37 38 25 44 40 36 41
44 23 31 34 22 33 39 30 30 29 29 42 29 30 23 23 27 25 28 31 27 32 29 28 21 23 24 25 30 28 29 29 29 30 33 34 32 34 33 34 29 31 41 42 48 44 37
32 40 33 34 45 25 29 37 28 28 33 28 36 33 37 28 31 37 29 28 34 32 24 25 28 27 28 29 33 33 32 34 35 36 38 33 35 37 33 41 43 33 43 47 44 44 33
34 38 48 36 45 25 26 34 28 29 35 26 35 30 30 29 32 36 32 33 33 29 28 31 31 31 32 32 35 36 37 33 34 37 37 39 41 43 40 41 44 45 43 41 43 42 47
50 50 43 49 37 28 29 30 35 50 30 32 32 36 32 34 31 33 35 35 36 26 32 33 35 36 37 35 36 37 42 40 38 41 43 36 38 48 47 49 47 35 42 44 42 44 48
46 46 50 47 41 52 49 38 36 36 45 35 38 45 41 44 44 34 35 43 38 43 40 39 40 41 42 43 42 42 41 45 43 48 40 46 47 51 49 45 50 46 41 45 46 42 47
47 67 46 48 57 45 40 55 40 42 48 45 43 44 48 48 48 40 42 41 39 42 42 41 43 43 45 43 41 46 49 48 45 49 51 54 50 56 52 52 50 49 47 47 49 49 50
81 60 68 59 51 51 45 45 53 43 43 51 54 47 50 54 51 44 51 51 45 45 45 45 45 47 44 50 48 49 44 45 54 53 54 55 38 50 51 54 54 53 56 49 51 58 45
73 45 61 72 48 53 60 64 67 52 51 50 51 54 62 51 54 57 48 51 55 52 50 53 50 50 50 48 52 42 37 52 42 54 45 50 51 54 53 54 45 62 57 58 59 59 56
82 62 86 82 64 73 57 64 58 68 66 64 56 60 58 63 56 55 53 60 55 54 54 55 55 56 53 53 54 51 58 57 54 50 53 56 56 57 64 68 63 66 54 66 66 53 59
62 86 84 76 84 62 73 65 67 65 77 70 62 65 66 65 64 61 57 60 65 62 59 58 45 59 58 59 58 58 58 63 64 58 58 61 62 69 68 56 69 70 64 68 72 71 74
88 96 92 89 71 91 73 74 76 77 76 84 75 70 72 70 70 67 61 67 68 68 67 61 61 61 63 63 63 62 59 68 58 49 64 63 68 71 73 74 75 66 76 61 69 81 80
97 98 87 105 103 90 93 84 78 90 84 74 80 83 75 75 74 70 71 75 74 73 71 70 69 68 67 72 71 69 67 68 69 49 72 69 63 69 74 75 67 63 79 80 77 80 80
98 100 99 103 113 96 105 78 75 74 87 84 86 82 84 81 77 79 79 81 80 79 76 74 75 76 76 77 72 63 74 76 70 67 62 76 75 64 78 63 77 72 77 74 81 80 87
118 119 115 107 105 114 112 52 92 75 102 87 87 85 87 83 86 81 85 84 78 82 82 78 79 81 72 82 82 79 81 80 78 75 75 77 77 79 77 72 75 76 84 83 85 83 87
106 112 116 117 112 111 116 108 116 113 104 106 97 93 97 97 88 88 88 85 86 86 88 86 78 86 85 68 88 87 83 86 73 73 76 78 80 80 83 80 76 75 80 87 92 86 87
77 93 108 111 117 113 114 122 117 111 120 80 113 95 95 96 85 87 90 89 88 84 90 89 74 90 91 90 88 66 90 70 83 82 87 87 83 84 87 83 79 79 93 88 94 99 97
58 69 84 102 108 111 115 125 126 122 122 106 109 110 102 102 96 98 97 93 77 95 93 93 76 94 94 95 92 93 87 94 76 87 88 92 97 78 82 89 87 80 84 88 94 97 93
57 58 74 79 100 106 104 121 126 131 126 122 110 118 103 111 99 99 98 99 103 100 101 99 96 91 95 76 81 82 88 88 85 93 90 94 101 104 82 93 87 81 99 86 96 98 99
66 67 69 67 84 104 102 106 134 135 135 123 126 117 124 111 99 103 106 82 107 105 97 97 97 102 100 101 96 87 81 81 101 86 98 96 107 85 98 97 87 88 96 92 83 101 96
64 67 61 62 71 93 107 110 134 136 136 132 130 124 120 115 110 103 104 105 105 104 105 109 103 106 108 101 108 103 97 101 103 94 94 96 95 101 106 110 89 95 96 96 84 96 84
61 65 58 56 66 73 104 109 116 141 140 128 131 130 121 119 124 118 116 104 114 115 113 107 108 101 106 108 110 108 107 106 98 94 101 98 105 106 99 105 98 103 104 99 97 110 112
60 57 56 53 61 71 95 112 115 136 137 142 133 131 126 127 129 124 101 118 118 111 112 103 109 101 106 107 112 110 108 107 91 99 109 116 115 104 84 107 99 95 99 104 103 113 111
49 52 55 60 55 66 75 109 117 124 136 140 139 140 139 119 81 132 126 121 121 118 120 121 94 101 117 108 106 110 107 96 100 107 104 110 117 116 105 99 115 105 75 99 112 131 94
Wind_Direction
274 268 286 259 257 262 263 270 257 253 259 263 264 264 268 266 262 266 270 265 270 272 267 254 260 212 217 232 262 271 274 285 290 303 307 334 312 327 342 350 352 355 358 354 285 253 354
274 260 272 256 266 257 259 283 261 260 258 260 263 263 264 263 265 266 272 273 261 257 255 214 189 205 254 252 267 265 272 281 285 300 298 312 321 328 327 337 347 343 345 344 348 339 331
269 256 273 260 268 286 271 261 259 262 262 264 261 261 262 265 268 274 278 249 254 261 215 198 195 256 223 279 270 261 277 285 290 297 297 294 314 327 331 329 330 328 338 338 332 332 335
287 257 270 266 263 260 278 271 269 265 262 263 263 262 265 267 276 266 253 269 258 242 248 240 229 260 258 267 273 266 276 281 275 291 301 305 320 323 327 326 329 326 323 331 326 332 327
261 261 252 258 276 260 257 278 278 275 268 261 258 261 271 273 256 260 262 250 263 248 253 218 272 254 258 267 263 278 236 286 292 300 298 313 318 319 323 322 325 327 324 323 325 323 327
263 248 271 249 257 254 261 257 270 265 264 261 256 254 267 270 246 252 242 248 251 257 274 212 245 249 265 273 270 285 282 285 298 298 304 299 306 303 314 319 315 324 306 319 317 328 321
255 267 250 245 264 248 253 263 259 275 267 249 247 252 247 234 243 247 268 259 249 261 261 265 225 254 250 250 280 278 286 289 287 299 299 291 305 295 313 296 310 314 318 312 306 308 316
241 279 250 247 243 260 257 249 259 261 258 258 254 256 268 233 254 260 250 251 266 266 241 257 270 253 263 256 280 281 287 284 287 294 290 297 301 305 308 299 306 309 313 306 315 313 310
266 274 258 260 243 257 255 244 267 255 257 256 248 247 246 240 247 273 259 262 264 258 252 263 278 268 249 263 276 275 270 289 289 289 291 290 294 297 302 305 303 302 296 292 301 302 300
262 255 259 243 249 251 247 252 245 248 248 251 247 253 250 248 245 249 255 257 265 260 255 258 273 251 271 280 277 276 268 276 285 284 281 294 295 292 298 294 294 303 296 296 299 300 301
247 271 263 273 255 244 244 240 248 247 249 249 249 248 249 251 262 256 254 259 244 265 266 267 255 252 253 254 265 277 278 275 281 280 290 292 291 286 288 296 287 292 297 298 299 297 300
258 255 277 261 251 254 243 245 242 245 243 249 246 249 249 250 254 248 249 250 254 249 258 255 265 259 258 266 276 269 269 272 279 278 277 283 286 287 288 289 292 294 296 297 300 299 301
275 284 256 273 268 261 257 244 242 244 242 243 250 248 249 251 248 249 253 257 252 250 256 257 261 251 269 257 269 267 275 279 269 273 273 280 290 288 291 291 294 297 297 298 298 299 297
280 268 258 271 256 258 264 259 254 235 239 241 246 248 250 249 247 253 247 250 255 259 258 276 257 259 258 264 260 269 277 271 275 274 281 282 286 288 291 294 286 295 298 298 298 299 297
273 273 269 276 237 255 263 263 237 246 240 242 243 243 246 247 250 248 246 255 274 255 253 255 257 280 254 262 274 274 271 276 277 281 282 286 288 289 290 287 296 295 285 297 298 292 294
272 271 270 264 269 233 262 256 258 235 251 240 239 242 244 246 247 249 250 251 254 256 255 256 280 259 267 270 270 275 278 279 275 284 287 282 289 288 289 290 293 294 292 298 301 303 304
266 263 264 258 234 270 240 249 254 241 241 252 246 235 243 243 246 247 247 250 254 256 255 256 260 264 265 269 273 273 279 276 275 267 285 284 284 287 290 292 293 292 295 286 294 300 303
259 254 269 261 263 259 261 257 260 255 238 244 236 247 237 241 244 249 246 248 251 252 257 259 260 261 263 264 267 271 275 278 279 294 283 282 283 286 288 289 289 286 293 295 298 302 301
259 256 253 252 256 262 263 238 247 250 249 246 239 237 250 241 244 243 243 248 249 253 253 254 257 261 264 266 267 265 273 274 274 275 281 281 283 281 285 286 287 291 292 290 299 302 295
262 257 255 251 247 256 259 258 249 254 250 236 240 239 236 259 238 242 243 245 252 251 254 254 257 259 263 264 267 269 271 272 275 277 278 281 282 285 283 284 287 286 289 296 293 295 297
252 255 253 250 245 236 242 233 240 246 251 246 234 239 237 247 241 241 243 244 248 251 255 254 258 259 261 267 265 267 267 272 271 271 272 275 280 278 279 282 285 291 291 288 298 290 292
251 247 244 244 243 240 227 235 234 255 247 245 245 242 236 239 261 252 247 244 249 255 253 254 262 256 259 262 263 267 268 268 273 272 276 278 275 279 284 280 282 286 294 290 298 291 292
248 248 245 238 239 239 234 231 231 240 245 249 244 245 238 241 237 243 245 252 259 249 250 253 259 257 261 261 263 264 266 270 272 271 274 280 280 281 280 284 288 288 281 286 291 291 295
254 246 244 241 233 233 234 226 226 233 238 237 246 244 238 244 238 242 245 245 247 248 248 253 256 259 259 266 267 268 268 268 271 272 274 278 282 284 283 283 286 290 290 292 290 294 295
253 248 244 240 235 228 231 227 224 230 231 241 235 244 243 242 246 242 243 260 248 250 252 249 254 255 257 259 265 267 272 271 271 277 276 280 282 284 283 284 286 288 292 289 294 290 299
251 247 243 239 234 229 226 225 222 225 231 235 238 238 239 244 242 246 246 246 246 249 250 249 253 256 256 261 263 265 268 269 270 273 278 279 283 284 284 285 289 290 291 287 298 290 301
249 248 245 239 234 228 224 226 225 225 225 236 233 238 242 239 245 249 247 245 251 252 252 250 252 260 259 259 262 265 268 270 273 275 276 279 279 283 285 287 290 292 294 289 290 303 307
250 248 243 240 235 229 225 224 225 226 226 229 236 239 242 243 242 249 253 253 254 253 254 254 256 253 259 262 260 263 267 269 278 277 278 276 278 283 289 288 289 288 288 294 298 303 303
244 241 240 240 236 231 226 225 225 224 227 227 232 233 239 247 247 243 248 248 249 257 255 257 253 255 263 261 264 267 265 273 275 274 278 280 281 282 286 284 293 292 292 293 301 303 295